Location: Oklahoma City
(35.4680°N, 97.5160°W)
Time: 07:53:50
(UTC-05:00)

ISS - Visible Passes

Search period start: 03 September 2015 00:00
Search period end: 13 September 2015 00:00
Orbit: 400 x 403 km, 51.6° (Epoch: 01 September)

Date Brightness Start Highest point End Pass type
(mag) Time Alt. Az. Time Alt. Az. Time Alt. Az.
07 Sep -0.9 05:55:14 10° S 05:57:37 19° SE 06:00:04 10° E visible
08 Sep -3.3 06:37:18 10° SW 06:40:33 68° NW 06:43:48 10° NE visible
09 Sep -2.8 05:46:09 32° SSW 05:47:17 52° SE 05:50:29 10° ENE visible
10 Sep -0.7 04:55:23 18° E 04:55:23 18° E 04:56:48 10° ENE visible
10 Sep -2.1 06:28:00 13° W 06:30:27 28° NW 06:33:20 10° NNE visible
11 Sep -3.1 05:37:08 56° NW 05:37:08 56° NW 05:40:18 10° NE visible
12 Sep -0.3 04:46:12 17° ENE 04:46:12 17° ENE 04:47:03 10° NE visible
12 Sep -1.1 06:18:48 11° WNW 06:20:33 15° NNW 06:22:31 10° N visible
